Printer-friendly version

IAU Minor Planet Center

Minor Planet Center

MPEC 2003-A76 : 2002 NT7

The following Minor Planet Electronic Circular may be linked-to from your own Web pages, but must not otherwise be redistributed electronically.


Read MPEC 2003-A75 Read MPEC 2003-A77


M.P.E.C. 2003-A76                                Issued 2003 Jan. 13, 19:05 UT

     The Minor Planet Electronic Circulars contain information on unusual
         minor planets and routine data on comets.  They are published
   on behalf of Commission 20 of the International Astronomical Union by the
          Minor Planet Center, Smithsonian Astrophysical Observatory,
                          Cambridge, MA 02138, U.S.A.

             Prepared using the Tamkin Foundation Computer Network

                              MPC@CFA.HARVARD.EDU
          URL http://cfa-www.harvard.edu/iau/mpc.html  ISSN 1523-6714

                                   2002 NT7

                           Revision to MPEC 2002-N38

Additional Observations:
     K02N07T 2 1954 07 10.42708 22 30 49.06 -06 27 32.6                      261
     K02N07T 2 1954 07 10.46181 22 30 49.88 -06 28 25.0                      261
     K02N07T 2 1990 07 20.21597 17 18 47.80 +19 41 20.3                      261
     K02N07T 2 1990 07 20.25764 17 18 45.25 +19 40 40.8                      261

Observer details:
261 Palomar-DSS.  Observers C. Brewer, J. D. Mendenhall.  Measurers G. Forti,
    A. Boattini, M. Tombelli.  1.2-m Schmidt.

Orbital elements:
2002 NT7                                                             PHA 0.016A
Epoch 2002 Nov. 22.0 TT = JDT 2452600.5                 MPC
M 357.30928              (2000.0)            P               Q
n   0.43113367     Peri.  300.65734     +0.12925703     -0.85687683
a   1.7353807      Node   132.16010     +0.96886387     +0.21631113
e   0.5293106      Incl.   42.31760     -0.21117629     +0.46794401
P   2.29           H   16.7           G   0.15           U   1
Residuals in seconds of arc
540710 261  0.1+  0.9+    020720 848  1.1+  0.1-    020801 649  0.1+  0.1+
540710 261  0.7+  2.1+    020720 848  0.7-  0.1-    020801 649  0.0   0.1+
900720 261  0.6+  0.0     020720 046  0.0   0.3+    020801 649  0.1+  0.0
900720 261  0.2+  1.5+    020720 046  0.2+  0.3+    020802 735  0.5-  1.1-
020709 704  0.6+  0.3-    020720 046  0.1-  0.0     020802 735  0.6-  1.2-
020709 704  1.8+  0.1+    020720 046  0.0   0.2+    020802 735  0.6-  1.3-
020709 704  1.2+  0.5+    020720 046  0.2+  0.3+    020803 428  0.1+  0.4-
020709 704  0.5-  0.5+    020720 046  0.0   0.4+    020803 428  0.2+  0.1-
020709 704  0.6+  0.4+    020721 J95  0.5+  0.1+    020804 938  0.7+  0.8+
020713 704  0.4+  1.3+    020721 J95  0.6-  0.1+    020804 938  0.8+  0.1-
020713 704  0.3+  1.2+    020721 J95  1.4+  0.5-    020804 938  0.2+  0.0
020713 704  0.8+  1.3+    020721 J95  0.5+  0.7+    020804 941  1.1-  0.4-
020713 704  0.5+  1.3+    020721 413  0.0   0.3-    020804 941  0.8-  0.1-
020713 704  0.6+  1.4+    020721 413  0.1+  0.2-    020804 941  0.5-  0.7-
020714 946  0.3-  1.0+    020721 413  0.2+  0.1-    020804 941  0.7-  0.5+
020714 946  0.2+  0.5+    020721 413  0.0   0.1-    020804 941  0.5+  0.2+
020714 946  0.0   0.4-    020721 413  0.1+  0.1-    020804 300  0.5+  0.9-
020714 858  0.5-  0.9+    020721 413  0.1+  0.2-    020804 300  0.3-  0.2-
020714 858  0.4+  0.0     020721 413  0.1+  0.2-    020805 452  0.7-  0.9-
020714 858  0.4+  0.7+    020721 413  0.2+  0.0     020805 452  0.2+  1.6-
020714 704  0.0   0.2-    020721 413  0.1+  0.1-    020805 452  0.7-  1.4-
020714 704  0.1-  0.0     020722 587  0.6+  0.7-    020805 452  0.3+  1.5-
020714 704  0.4+  0.4-    020722 587  1.5-  1.0-    020805 452  0.6+  0.2-
020714 448  1.4-  0.1+    020722 587  0.1-  2.2-    020805 670  0.2+  0.0
020714 448  1.1-  0.2-    020723 670  0.4+  0.0     020807 670  0.2-  0.5+
020714 704  0.4+  0.7-    020723 644  0.1-  0.0     020810 428  0.6+  0.1-
020714 448  0.3-  0.2-    020723 644  0.1-  0.1+    020810 428  0.3+  0.0
020714 734  0.4+  0.1+    020723 670  0.0   0.0     020813 322  0.4-  0.1+
020714 704  0.2-  0.3+    020723 644  0.1-  0.1+    020813 322  0.2-  0.7+
020714 734  0.2+  0.3+    020724 644  0.1-  0.7-    020813 322  0.2-  0.3+
020714 704  0.9+  0.7-    020724 644  0.0   0.7-    020819 413  0.3+  0.3+
020714 704  0.2-  0.5+    020724 644  0.2-  0.5-    020819 413  0.3+  0.2+
020714 704  0.3-  0.5+    020724 608  0.1+  0.6-    020819 413  0.2+  0.3+
020714 704  0.5-  0.6+    020724 608  0.4-  1.4-    020819 413  0.2+  0.4+
020714 704  0.1-  0.4+    020724 608  0.8-  0.5-    020819 413  0.3+  0.3+
020714 704  0.2+  0.7+    020728 540  0.6-  0.5+    020819 413  0.3+  0.4+
020714 704  0.1-  0.6+    020728 540  1.2-  0.2+    020819 413  0.3+  0.4+
020714 704  0.3+  0.6+    020728 540  0.7-  0.3+    020819 413  0.3+  0.3+
020714 704  0.2-  0.2+    020729 540  0.3-  0.5+    020820 413  0.2+  0.3+
020714 704  0.2+  0.7+    020729 540  0.3-  0.3-    020820 413  0.4+  0.2+
020714 704  0.6-  0.5+    020729 670  1.5-  1.0+    020820 413  0.4+  0.2+
020714 704  0.4+  0.7+    020729 670  0.8+  0.5+    020910 428  0.4+  0.5+
020714 704  0.1+  0.5+    020729 413  0.2-  0.0     020910 428  0.3+  0.8+
020714 671  0.6+  0.4+    020729 413  0.1+  0.3-    020910 428  0.3+  0.7+
020714 671  0.4+  0.3+    020729 413  0.2+  0.1-    020922 422  0.6+  0.3-
020714 671  0.1-  0.3+    020729 413  0.1+  0.0     020922 422  0.7+  0.2+
020714 704  0.2+  0.5+    020729 413  0.1-  0.0     021002 422  0.5+  0.6-
020717 176  0.6+  0.3-    020729 413  0.2+  0.4-    021002 422  0.2+  0.3-
020717 176  0.0   0.0     020729 151  0.4-  0.1+    021015 413  0.1+  0.4-
020717 176  0.1-  0.1+    020729 151  1.2-  0.9+    021015 413  0.2+  0.4-
020717 734  0.0   0.1+    020729 151  0.3-  0.7+    021015 413  0.1+  0.3-
020717 734  0.1-  1.2+    020729 151  0.1-  0.4+    021018 413  0.2+  0.4-
020717 848  0.8+  0.4+    020730 608  0.3+  0.1-    021018 413  0.2+  0.4-
020717 848  0.7+  0.4-    020730 608  0.3+  0.0     021018 413  0.2+  0.4-
020718 848  0.1+  1.1+    020730 608  0.7+  0.2-    021020 413  0.0   0.4-
020718 848  0.3-  0.2-    020730 413  0.0   0.2-    021020 413  0.1+  0.4-
020718 848  0.4+  0.5-    020730 413  0.1+  0.1-    021020 413  0.1-  0.3-
020718 587  0.2-  0.2+    020730 413  0.0   0.1-    021020 413  0.1+  0.5-
020718 587  0.5+  0.5+    020730 413  0.0   0.3-    021020 413  0.2+  0.3-
020718 587  0.2-  0.9+    020730 413  0.2+  0.1-    021025 413  0.0   0.4-
020719 587  0.1-  0.8+    020730 413  0.1+  0.1-    021025 413  0.1+  0.3-
020719 413  0.3-  0.2-    020731 784  0.1-  1.7-    021025 413  0.0   0.3-
020719 413  0.4-  0.0     020731 784  0.2-  2.4-    021202 474  0.3-  0.3-
020719 413  0.3+  0.3+    020731 649  0.0   0.1+    021202 474  0.2-  0.3-
020719 413  0.2-  0.4-    020731 784  0.4+  1.0-    021202 474  0.3-  0.4-
020719 413  0.0   0.4-    020731 649  0.6-  0.3+    021213 413  0.2-  0.2+
020719 413  0.4-  0.2-    020731 649  0.5-  0.1+    021213 413  0.2-  0.2+
020719 046  0.1+  0.1+    020731 784  0.2-  0.3+    021213 413  0.3-  0.2+
020719 046  0.4+  0.7+    020731 784  0.3+  2.0-    021214 413  0.2-  0.2+
020719 046  0.3+  0.1+    020731 704  0.1+  0.2+    021214 413  0.2-  0.3+
020719 046  0.1-  0.4+    020731 784  0.3+  2.4-    021214 413  0.2-  0.2+
020719 046  0.3+  0.5-    020731 704  0.1-  0.2+    021214 413  0.1-  0.2+
020719 046  0.0   0.3+    020731 704  0.2+  0.4+    021227 413  0.2-  0.3+
020720 941  1.9-  1.0-    020731 413  0.2+  0.1-    021227 413  0.3-  0.3+
020720 941  1.5-  1.5-    020731 413  0.2+  0.2-    021227 413  0.1-  0.2+
020720 941  1.3+  2.0+    020731 413  0.2+  0.1-    021228 413  0.3-  0.2+
020720 620  0.0   0.1-    020731 413  0.1+  0.2-    021228 413  0.1-  0.2+
020720 620  0.5-  0.1+    020731 413  0.2+  0.1-    021228 413  0.3-  0.1+
020720 620  1.2-  1.2+    020731 413  0.2+  0.1-    030112 170  0.5-  0.2+
020720 946  1.2-  0.9+    020801 859  0.6-  1.6-    030112 170  0.4+  0.2-
020720 946  0.4-  0.8-    020801 859  0.8-  0.2+    030112 170  0.8+  0.8+
020720 848  0.7-  0.4-    020801 859  0.3-  0.5+    030112 170  0.2+  0.5+

Ephemeris:
2002 NT7                 a,e,i = 1.74, 0.53, 42                  q = 0.8168
Date    TT    R. A. (2000) Decl.     Delta      r     Elong.  Phase     V
2003 01 11    13 57.89   -06 37.3    0.418    1.004    80.6    75.1    17.4
2003 01 21    14 21.95   +10 21.8    0.427    1.079    90.9    65.8    17.3
2003 01 31    14 42.18   +25 50.7    0.465    1.158    99.8    56.9    17.4
2003 02 10    14 56.61   +38 34.2    0.526    1.240   106.0    49.9    17.6
2003 02 20    15 03.49   +48 23.3    0.605    1.321   109.6    44.8    17.9
2003 03 02    15 01.18   +55 40.3    0.695    1.401   111.2    41.2    18.3
2003 03 12    14 48.61   +60 45.6    0.793    1.480   111.4    38.7    18.6
2003 03 22    14 26.87   +63 51.9    0.897    1.557   110.6    36.8    18.9
2003 04 01    13 59.89   +65 10.1    1.004    1.631   109.0    35.4    19.2
2003 04 11    13 33.57   +64 54.6    1.115    1.703   106.9    34.3    19.5
2003 04 21    13 12.71   +63 26.8    1.229    1.772   104.5    33.3    19.8
2003 05 01    12 58.94   +61 08.7    1.345    1.838   101.8    32.4    20.0
2003 05 11    12 51.86   +58 18.2    1.463    1.902    98.9    31.7    20.3
2003 05 21    12 50.15   +55 08.5    1.583    1.962    95.7    30.9    20.5
2003 05 31    12 52.46   +51 48.2    1.704    2.020    92.5    30.1    20.7
2003 06 10    12 57.77   +48 23.0    1.827    2.075    89.1    29.3    20.9
2003 06 20    13 05.28   +44 57.1    1.950    2.127    85.5    28.4    21.0
2003 06 30    13 14.42   +41 32.9    2.073    2.177    81.9    27.5    21.2
2003 07 10    13 24.83   +38 12.4    2.196    2.224    78.2    26.6    21.3
2003 07 20    13 36.20   +34 57.3    2.319    2.268    74.5    25.6    21.5
2003 07 30    13 48.34   +31 48.4    2.439    2.310    70.6    24.5    21.6
2003 08 09    14 01.13   +28 46.9    2.558    2.349    66.7    23.4    21.7
2003 08 19    14 14.45   +25 53.5    2.673    2.386    62.7    22.2    21.8

A. U. Tomatic                (C) Copyright 2003 MPC           M.P.E.C. 2003-A76

Read MPEC 2003-A75 Read MPEC 2003-A77


Our Web policy. Index to the CBAT/MPC/ICQ pages.


Valid HTML 4.01!